FALCON 9 DEB (45106 NORAD) Tracking and Keplerian Element Data

This shows tracking and keplerian element data for the satellite.

Feedback or suggestion? Click here.




ElementValue
Catalog45106
NameFALCON 9 DEB
Epoch Orbit368
Epoch Day52.577682
Epoch Year2020
RAAN118.2564
Inclination52.9971
Eccentricity0.001207
Argument of Perigee57.9161
Mean Anonmoly302.3039
Mean Motion16.02597439
Decay Rate0.00187987
L11 45106U 20006BQ 20052.57768200 .00187987 26528-4 31000-3 0 9992
L22 45106 52.9971 118.2564 0012070 57.9161 302.3039 16.02597439 3680

Live tracking and technical data element details for FALCON 9 DEB (NORAD 45106). FALCON 9 DEB can be tracked NOW for your location showing map with azimuth and elevation plus other details from your city location.

Track the satellite on the map from your city or location and see movement details for azimuth, elevation, latitude, longitude, range, height, and movement on the map or in text.







IsCatalogInMostPopularTable: catalog: 45106, numindb: 5
Update: records affected: 1



GetName: 45106 FALCON 9 DEB

Hit Count: updated at: Mon, 24 Feb 2020 18:03:55 GMT